Wind_Speed
25 26 26 25 24 23 22 20 17 16 16 17 18 18 19 19 19 18 18 15 13 12 13 14 16 17 18 19 20 20 20 19 20 20 19 19 19 18 17 16 15 13 12 10 9 8 8 7 7 7 7 7 7 7 6 6 6 5 5 4 4 3 3 3 3 2 2 2 2 3 3 3 4 5 6 7 7 8 9 9 10 10 11 11 11
24 26 26 26 25 24 23 21 18 16 16 17 17 18 19 19 19 18 18 16 12 12 13 14 15 16 17 19 20 20 19 19 20 20 20 19 18 18 17 16 15 13 11 10 9 8 8 7 8 8 7 7 7 7 6 6 6 5 5 4 3 3 2 2 2 2 2 2 2 3 3 4 4 5 7 7 8 8 9 10 10 11 11 12 12
23 25 26 26 26 26 25 22 19 17 16 17 17 18 18 19 19 18 18 16 12 11 12 13 15 15 17 18 19 19 19 20 20 21 20 19 18 17 16 16 14 13 12 10 9 8 8 8 8 8 7 7 7 7 6 6 6 5 4 4 3 3 3 2 2 2 2 3 3 3 4 4 4 5 6 7 8 8 9 10 10 11 11 12 12
22 25 26 26 26 26 25 23 20 17 16 17 18 18 19 18 18 18 18 17 13 11 12 13 14 15 16 18 19 19 19 20 20 21 21 20 18 17 16 15 14 13 12 10 9 8 8 8 8 8 7 7 6 7 7 7 6 6 5 4 4 4 3 3 3 3 3 4 4 4 5 5 5 6 7 8 9 9 9 10 11 11 11 12 13
22 24 26 26 26 25 25 22 20 17 17 17 18 19 19 19 18 17 18 17 13 11 12 13 14 15 16 17 18 19 19 20 20 21 21 20 18 17 16 15 14 13 11 10 9 8 7 8 8 8 8 7 7 7 7 7 7 6 6 6 5 5 4 4 4 4 5 5 5 6 6 6 7 7 8 9 10 10 10 11 11 12 12 13 13
21 24 25 25 26 25 24 22 20 18 17 18 19 19 19 19 18 17 18 17 14 12 12 13 14 15 16 17 18 19 19 20 20 20 20 19 18 17 15 14 13 12 11 10 8 8 7 7 8 8 8 8 8 7 7 7 7 7 7 6 6 6 6 5 6 6 6 6 7 7 7 8 9 9 10 10 11 11 11 12 12 13 13 13 14
21 23 24 24 25 25 23 22 20 19 19 20 20 20 20 19 18 17 17 17 15 12 12 13 14 14 15 17 18 18 19 19 20 20 20 19 18 16 15 14 13 12 11 9 8 7 7 7 7 8 8 8 8 7 7 7 7 7 7 7 7 6 7 7 6 6 7 7 7 8 8 9 10 11 12 12 12 12 12 12 13 14 14 14 15
20 22 22 23 24 24 22 21 21 20 21 21 21 21 20 19 18 17 17 17 15 13 13 13 14 14 15 16 17 18 18 19 19 19 19 19 17 15 14 13 13 12 10 9 8 7 7 7 7 7 8 8 8 7 7 7 7 7 7 7 7 7 7 7 7 7 7 7 8 8 9 9 10 12 13 13 13 12 13 13 14 14 15 15 15
20 21 21 22 23 23 21 21 22 22 22 22 21 21 20 19 18 17 17 17 15 13 13 13 13 14 15 16 17 18 18 19 19 19 19 18 17 15 13 13 12 11 10 9 8 7 7 7 7 7 7 8 7 7 6 6 6 7 7 7 7 7 7 7 7 7 8 8 8 9 10 10 10 12 13 14 13 12 13 14 15 15 16 16 16
19 20 21 22 22 21 21 21 22 23 23 22 22 21 20 19 17 17 17 17 15 14 13 13 13 13 14 16 17 18 18 19 19 20 19 18 16 14 13 12 12 11 10 9 8 8 8 7 7 7 7 7 6 6 6 6 6 7 7 7 7 7 7 7 7 8 8 8 9 10 10 11 11 11 13 13 13 13 13 14 15 15 16 17 17
18 20 21 22 21 21 21 22 22 23 23 23 22 21 20 18 17 17 17 16 15 14 13 14 14 14 15 16 17 18 18 19 20 20 20 18 16 13 12 12 11 10 10 9 8 8 8 7 7 7 6 6 6 6 6 6 6 7 7 7 7 7 7 7 7 8 8 8 9 10 10 11 11 11 12 13 13 13 14 14 15 15 16 17 18
18 19 21 21 21 21 21 22 22 23 23 23 22 21 20 18 17 17 17 16 15 14 14 14 14 14 15 17 18 18 19 19 20 20 19 18 15 13 12 11 10 10 9 9 8 8 7 7 7 6 6 6 6 6 6 6 7 7 7 7 6 6 7 8 7 7 8 9 9 10 10 11 12 13 13 14 14 14 14 15 16 16 17 17 18
17 18 20 21 22 22 22 22 23 23 23 23 23 22 20 18 17 17 16 16 15 14 14 14 14 14 15 17 18 18 18 19 20 20 19 17 14 12 11 10 10 9 9 8 8 7 7 6 6 6 6 6 6 6 6 6 6 7 7 8 7 6 7 8 8 8 8 9 10 10 11 12 13 14 15 15 16 15 15 16 16 17 17 17 18
17 18 19 21 22 22 22 23 23 23 23 23 23 23 21 19 17 17 16 16 15 14 14 14 13 13 14 16 17 17 18 18 19 20 19 17 14 12 11 10 9 9 8 8 7 7 6 6 6 6 6 6 6 6 6 6 6 6 7 9 9 8 8 8 8 9 9 10 10 11 12 13 14 15 16 17 17 17 17 17 17 18 18 18 19
17 18 19 21 22 22 23 24 24 24 23 23 24 23 22 19 18 17 16 15 15 14 14 13 13 12 13 15 16 16 17 18 19 20 19 16 14 12 10 9 9 8 8 7 6 6 6 5 5 5 5 5 6 6 6 6 6 6 7 9 10 10 9 9 9 9 10 11 12 12 13 14 15 16 17 18 18 18 19 19 19 19 19 20 20
18 19 20 21 22 22 24 25 25 24 23 23 24 24 22 20 18 17 17 16 15 14 13 13 12 12 13 15 15 15 16 17 18 19 18 16 13 12 10 9 8 8 7 6 6 5 5 5 5 5 5 5 5 5 6 6 6 6 7 8 10 10 10 10 10 11 11 11 12 13 14 15 16 17 17 18 18 19 20 20 21 21 20 21 21
21 22 22 22 22 24 26 25 24 23 22 22 23 23 22 20 19 18 17 16 15 14 13 12 12 12 13 14 14 14 15 16 17 18 17 15 13 11 10 9 8 7 6 6 5 5 5 5 5 5 5 5 5 5 5 5 6 6 7 8 9 10 11 11 11 12 12 12 12 13 14 15 17 17 18 18 19 20 20 21 22 22 22 22 22
24 25 24 24 24 26 28 25 23 22 21 21 22 22 22 20 19 18 17 17 16 15 13 12 11 12 12 13 14 13 14 15 16 16 17 15 13 11 10 8 7 6 5 5 5 5 5 4 4 4 4 5 5 5 5 5 6 6 6 8 9 10 11 12 12 12 12 12 13 13 14 15 16 17 18 18 19 19 20 21 22 22 23 23 23
26 27 27 27 28 29 28 26 23 22 20 20 21 21 21 20 19 18 18 17 16 15 14 12 11 12 12 13 13 13 13 14 15 15 16 15 12 11 10 8 7 6 5 4 4 5 4 4 4 4 4 4 4 4 5 5 6 6 6 7 8 10 11 12 12 12 13 13 13 13 14 15 16 17 18 18 19 19 20 20 21 22 23 23 23
29 29 29 29 29 29 26 25 24 22 20 19 20 20 20 20 19 18 18 17 16 15 14 12 12 12 12 13 12 12 12 13 13 14 15 14 12 10 9 8 6 6 5 4 4 4 4 4 4 4 4 5 5 6 6 6 6 7 7 7 8 9 10 11 12 12 12 13 13 13 14 14 15 16 17 18 19 20 20 20 21 22 23 23 23
29 27 25 23 22 21 21 22 21 20 19 19 19 20 19 19 19 18 17 17 16 15 14 13 12 12 12 12 13 12 11 12 12 13 14 13 11 10 8 7 6 6 5 4 3 3 3 3 4 4 5 5 6 6 7 7 7 7 7 7 7 8 9 10 11 11 12 12 13 13 14 14 15 16 17 18 19 20 21 21 22 22 23 23 23
23 20 18 17 16 16 18 18 18 17 17 18 19 19 19 18 18 17 17 16 15 15 14 13 13 13 13 13 13 13 12 11 11 11 12 12 11 9 7 7 6 6 5 3 2 2 2 2 3 3 4 5 5 6 6 6 7 7 7 7 7 7 8 9 10 10 11 11 12 13 14 15 16 17 18 18 19 20 21 22 23 23 23 24 24
14 12 13 14 14 15 16 16 15 15 15 17 18 18 17 17 17 17 16 15 15 14 14 14 14 14 14 13 13 13 13 12 11 11 11 12 11 9 7 6 6 6 5 4 3 1 1 2 2 3 3 4 5 5 5 5 6 6 6 6 6 7 8 8 9 10 11 12 13 13 14 15 16 17 18 19 20 21 22 22 22 23 23 23 24
11 11 14 16 16 16 16 15 14 14 14 15 15 15 15 15 16 16 15 15 14 13 13 14 15 15 15 14 14 14 13 13 12 11 11 11 11 9 8 7 6 6 5 5 3 1 1 1 2 2 2 3 4 4 5 5 5 5 6 6 6 7 8 8 9 11 12 13 13 14 15 16 17 18 18 19 20 22 22 23 23 22 23 24 24
16 17 20 19 18 17 15 15 15 14 13 11 10 11 12 13 14 15 15 15 15 14 14 15 16 16 16 15 14 14 14 14 13 11 10 10 11 10 9 8 7 6 5 5 4 2 1 1 1 2 2 3 4 5 5 6 6 7 7 8 8 9 9 10 10 11 12 13 14 15 16 17 18 18 19 20 21 22 23 23 24 24 23 24 24
19 20 20 19 17 15 14 15 14 14 12 8 8 9 11 12 14 15 15 15 15 15 14 15 16 17 17 16 15 14 14 14 14 12 10 10 10 10 9 8 7 6 6 5 4 3 2 2 3 3 4 5 5 6 7 8 9 9 10 10 11 11 12 12 12 13 14 15 15 16 17 18 19 19 20 21 22 22 23 23 24 25 24 24 24
17 17 17 17 16 16 15 14 13 12 10 8 9 11 13 13 14 15 15 16 16 16 16 16 17 17 16 16 15 14 14 14 14 12 11 10 9 10 10 8 7 6 6 5 4 4 4 4 5 5 6 7 8 8 9 10 11 12 12 13 13 14 14 15 15 15 16 16 17 17 18 19 20 20 21 22 23 24 24 24 24 25 25 25 25
14 14 14 14 15 16 16 14 13 11 10 9 10 13 15 15 15 16 16 17 17 18 17 17 17 17 16 16 16 15 14 14 14 13 11 10 9 10 10 9 8 7 6 6 5 5 6 7 8 8 9 10 10 11 11 12 13 14 14 15 15 16 16 16 17 17 17 18 18 18 19 20 20 21 22 23 24 25 26 27 26 26 26 26 26
12 12 12 14 16 16 14 14 13 13 14 13 14 15 17 17 17 17 18 18 18 19 18 18 18 18 17 16 16 15 14 14 14 13 12 10 10 10 10 11 10 8 7 7 6 6 8 9 10 10 11 12 12 13 13 14 15 16 16 16 17 17 17 17 17 17 18 18 19 19 20 20 21 22 23 24 25 26 27 28 29 29 28 27 27
13 13 13 16 18 17 15 14 14 15 17 17 17 17 17 17 18 19 19 18 19 19 19 19 19 19 17 16 16 16 15 15 14 14 14 12 11 11 12 12 11 9 8 8 8 8 9 11 12 12 13 14 14 15 15 16 17 17 17 18 18 18 18 18 18 18 19 19 19 20 20 21 22 23 24 24 25 26 27 29 30 30 30 29 28
15 16 16 18 19 19 17 16 17 18 19 18 17 17 17 18 19 20 19 19 19 19 19 20 20 20 18 17 17 17 17 16 16 16 16 14 13 12 13 13 12 10 10 10 10 10 10 12 14 14 15 16 16 16 16 17 17 18 18 18 18 18 19 19 19 19 19 20 20 20 21 22 23 24 24 25 26 26 27 28 30 31 31 30 29
15 16 18 19 20 19 18 18 18 19 21 20 19 18 18 19 20 20 19 20 20 19 19 20 21 20 19 18 18 18 18 17 17 17 16 16 16 15 14 14 13 11 11 11 11 11 12 14 15 15 16 16 17 17 17 18 18 18 19 19 19 19 20 20 20 20 20 21 21 21 22 23 24 25 25 26 27 27 28 28 29 31 31 30 29
15 16 18 19 20 20 20 20 19 20 21 20 18 18 19 21 21 20 20 20 21 21 20 20 21 20 19 18 18 18 19 18 17 16 16 17 17 16 15 15 14 12 12 12 12 12 13 14 15 16 16 17 17 18 18 18 18 19 19 19 20 20 20 20 20 21 21 21 22 22 23 24 25 26 27 28 28 29 29 29 29 30 31 31 30
15 17 19 19 20 21 22 22 20 19 19 16 15 17 19 21 21 20 20 21 22 22 22 21 20 20 19 18 18 18 19 18 16 14 14 15 15 14 14 15 15 14 13 12 12 12 13 15 15 16 16 17 18 18 18 18 19 19 19 20 21 21 21 21 22 22 22 23 23 24 24 25 26 27 29 30 31 31 30 30 30 30 31 31 31
16 18 20 21 22 23 23 23 20 18 17 14 13 15 17 18 19 19 20 21 22 22 21 20 19 19 18 18 17 18 18 17 15 14 13 12 13 13 14 15 15 14 13 12 12 12 13 15 16 16 17 18 18 18 19 19 20 20 20 21 22 22 22 22 23 23 24 24 24 25 26 26 28 29 31 32 32 32 31 30 29 30 30 31 31
18 19 22 24 25 25 25 23 19 17 17 15 14 15 16 17 17 18 19 20 21 20 20 19 18 18 17 16 16 16 17 17 15 14 12 12 12 13 15 16 15 14 13 12 12 13 14 15 16 17 18 19 19 20 20 21 21 21 21 21 23 24 24 24 24 24 25 25 26 26 27 28 30 31 32 33 33 32 31 30 29 29 29 30 31
21 22 24 26 27 27 25 22 19 17 18 18 17 17 17 17 17 18 19 20 19 19 19 19 19 17 15 14 14 15 16 16 15 14 13 13 13 13 15 16 15 13 12 12 12 13 14 16 17 18 19 20 20 21 21 21 22 21 21 22 23 25 25 25 25 25 26 26 27 28 29 31 32 32 33 33 33 32 31 30 29 28 29 29 30
24 25 26 26 26 25 22 20 18 18 19 19 19 19 19 19 19 20 20 20 19 19 19 19 18 16 15 14 14 15 16 16 15 15 14 14 14 14 15 15 14 12 12 12 13 13 15 16 17 18 19 20 21 22 22 22 23 23 23 23 24 25 26 27 27 27 27 28 29 31 32 33 34 34 34 33 32 31 31 30 30 29 29 29 30
25 25 24 23 21 20 18 17 18 18 19 20 19 19 19 20 20 21 21 20 20 19 19 18 16 15 14 14 15 16 16 16 16 15 15 16 16 15 14 13 12 11 11 12 13 14 15 16 18 19 20 21 22 22 23 24 25 25 25 25 25 26 27 27 28 29 30 31 32 33 34 35 35 35 35 34 33 32 31 30 31 30 31 31 31
22 21 20 18 17 16 16 17 17 18 19 20 19 19 19 20 21 21 21 21 20 19 18 17 15 14 14 15 15 16 16 16 16 15 15 17 16 14 12 11 10 10 11 12 13 14 15 17 18 19 21 22 23 24 24 26 27 27 27 27 27 27 28 29 30 31 32 34 35 35 36 36 36 36 35 35 34 33 32 31 31 31 31 32 33
17 17 16 16 16 16 16 16 17 17 18 19 19 18 20 21 22 22 22 22 21 20 18 16 14 14 14 15 15 15 15 15 14 15 15 14 12 10 9 9 9 10 12 13 14 15 16 18 19 20 21 22 24 25 26 27 28 29 29 29 29 30 30 32 33 34 35 36 37 37 37 37 37 36 36 35 35 34 33 33 32 31 31 32 34
14 14 15 15 16 16 16 16 16 17 17 18 18 19 22 22 21 21 22 22 21 20 18 15 14 14 14 14 14 14 14 14 13 13 11 9 8 8 8 9 10 11 13 14 15 17 18 18 19 21 22 23 24 26 27 28 29 30 31 32 32 33 33 34 36 37 38 38 39 38 38 37 37 36 36 35 35 35 34 34 34 33 32 32 33
13 14 15 16 16 17 17 17 17 17 18 18 19 21 23 22 20 19 20 21 20 18 16 14 13 13 11 10 10 10 11 12 12 10 8 7 8 8 9 10 11 12 14 15 17 18 19 19 21 22 23 24 25 26 27 28 30 32 33 34 35 36 37 37 38 38 39 38 38 38 38 37 36 35 34 34 34 34 34 34 34 34 34 33 33
13 14 15 16 17 17 16 17 17 19 19 19 21 22 22 20 19 19 18 19 17 15 13 12 12 11 9 7 7 8 9 10 10 9 8 8 9 10 10 11 12 14 15 16 17 18 19 21 22 23 23 24 25 26 27 29 31 33 35 37 38 38 39 39 39 39 39 38 38 37 36 35 34 34 33 33 33 33 34 34 34 34 34 34 34
13 14 15 16 15 14 14 16 17 18 18 19 20 20 19 18 18 17 16 16 14 12 11 11 12 13 9 7 8 8 9 9 9 8 9 9 10 11 12 13 14 15 16 17 18 19 20 22 22 23 24 24 25 27 29 31 33 35 36 38 39 39 39 39 38 38 37 37 37 37 36 35 35 34 34 33 33 33 33 33 33 34 34 35 35
13 14 15 14 13 12 13 15 16 17 18 19 19 19 18 17 17 16 14 13 12 12 11 11 13 13 10 8 9 9 9 9 8 9 10 11 11 12 13 14 15 16 17 18 19 20 21 22 23 23 24 25 27 29 31 32 34 36 37 37 38 38 37 37 36 35 35 35 36 36 36 36 36 35 34 33 33 33 33 34 35 35 36 36 37
14 15 14 12 11 12 13 15 17 18 18 18 19 18 17 16 15 14 12 12 12 12 12 12 13 13 11 10 10 9 9 8 8 10 11 12 13 14 14 15 16 17 17 18 19 20 21 22 23 24 26 27 29 31 32 34 35 36 36 37 36 36 36 35 35 34 34 35 35 36 36 36 35 34 34 33 33 34 35 36 37 37 38 38 39
15 14 13 11 11 11 13 15 17 18 18 19 19 17 15 14 14 13 12 12 12 12 12 12 13 12 11 11 10 9 8 8 9 11 12 13 14 14 15 16 17 17 17 18 19 21 22 23 24 26 28 29 31 32 34 35 36 37 37 37 36 36 35 35 35 35 35 35 35 35 35 35 35 35 34 34 35 35 36 37 38 39 39 39 40
15 14 12 10 10 10 12 14 16 17 18 18 17 15 14 14 14 13 13 13 12 13 13 12 13 12 12 11 10 9 8 9 10 12 13 14 14 15 16 17 17 17 18 19 20 22 23 25 26 28 29 31 32 34 36 37 38 39 39 38 37 36 35 35 35 35 35 34 34 33 33 34 34 34 35 36 37 38 39 39 40 41 41 41 42
15 13 12 10 10 11 12 14 14 15 17 17 16 14 15 15 15 15 15 14 14 13 13 13 13 12 12 11 10 9 9 10 11 12 14 15 16 16 17 16 17 17 18 20 21 23 25 27 28 29 31 32 34 35 37 38 39 39 39 38 37 36 36 35 35 35 34 33 33 32 32 33 34 35 36 37 39 41 41 42 42 43 44 45 45
15 13 12 11 12 13 13 13 13 14 15 15 15 15 17 17 17 17 16 15 14 14 13 13 13 12 11 11 10 9 10 11 12 14 15 16 16 16 16 16 16 17 19 21 23 26 27 28 29 30 32 33 34 36 38 39 39 39 39 38 37 36 36 36 35 35 34 34 34 34 34 35 36 38 39 41 42 44 44 45 45 46 47 48 50
Wind_Direction
342 343 342 342 344 342 338 335 328 327 330 330 332 336 339 342 346 349 351 352 353 350 346 348 352 358 2 1 1 2 4 5 5 3 2 3 5 5 7 9 10 10 13 22 29 31 31 32 33 33 32 28 24 20 18 18 15 15 14 13 11 11 12 15 16 11 359 344 332 321 314 312 310 308 306 302 300 299 298 298 298 296 295 293 293
339 342 341 340 342 343 339 333 325 323 326 326 329 333 335 339 343 345 347 349 350 347 344 344 348 357 0 359 359 360 1 3 3 2 1 1 3 4 6 10 12 15 18 25 31 34 34 33 32 31 29 24 19 14 10 9 9 9 7 4 0 355 358 359 357 349 334 319 308 303 301 301 303 305 304 302 299 297 296 295 295 295 295 294 294
335 341 341 340 341 342 338 331 323 320 323 323 326 329 331 335 338 341 343 346 346 345 342 340 344 354 359 357 357 358 359 2 2 1 359 359 0 2 5 10 15 19 25 29 33 33 31 28 26 24 22 18 13 7 3 4 5 4 359 352 345 339 339 336 327 312 297 289 286 286 287 291 296 299 298 295 293 291 291 291 292 294 295 296 297
332 338 340 341 341 339 334 329 322 319 320 321 323 325 326 330 334 337 339 342 342 342 339 335 340 351 357 356 355 357 358 1 1 0 358 358 359 1 4 10 15 21 28 33 36 33 25 20 17 15 12 10 5 2 1 3 2 359 355 347 341 338 334 325 311 296 286 283 284 285 286 286 288 288 289 287 286 285 287 289 292 294 295 296 296
329 335 340 342 340 336 332 327 322 319 318 318 321 322 323 326 330 333 336 339 338 338 335 332 338 348 354 353 353 355 358 0 1 360 358 357 357 359 3 9 15 21 28 34 36 31 21 15 11 9 7 4 1 360 2 3 2 358 356 351 345 341 331 320 310 303 297 294 293 293 292 290 288 285 284 284 284 286 290 293 294 295 295 295 295
325 333 339 340 337 334 330 326 323 320 318 318 319 320 319 321 326 329 333 336 334 333 332 330 336 345 351 351 351 354 357 360 0 359 357 356 356 359 2 7 14 19 24 30 32 27 19 14 10 8 5 3 1 359 360 0 0 357 355 351 346 340 331 323 319 312 306 302 300 298 296 295 294 292 290 289 289 291 294 296 296 296 296 295 295
322 330 336 337 335 333 329 326 325 321 318 318 319 318 317 318 323 327 331 333 330 327 328 328 334 342 347 348 349 352 357 359 360 359 356 355 356 358 2 6 13 17 20 24 26 23 17 12 10 7 4 2 1 359 358 358 357 354 351 348 345 340 335 332 327 320 313 308 305 302 300 299 299 298 297 295 295 296 297 296 296 296 297 297 296
319 325 330 332 331 331 329 327 326 323 319 319 318 316 315 316 321 325 328 330 326 322 324 326 331 339 342 344 346 351 356 358 359 357 355 355 356 358 1 5 11 15 16 19 20 18 14 11 8 6 4 2 2 1 359 356 353 350 346 345 343 340 339 337 332 326 321 317 313 309 306 304 304 304 302 300 300 301 301 300 300 300 299 298 297
316 320 323 325 327 328 329 330 328 324 322 320 317 314 313 314 319 322 324 325 321 317 319 322 328 335 339 341 344 349 355 357 358 356 355 354 355 358 0 5 11 14 15 16 17 15 14 11 10 8 7 6 4 1 360 358 353 347 344 344 341 338 339 338 334 331 329 326 321 318 313 310 311 311 307 303 304 306 307 306 305 304 303 301 300
314 315 316 319 323 327 330 332 329 326 323 320 317 312 311 312 316 319 319 320 316 312 314 319 324 332 335 338 343 348 354 356 357 356 354 353 354 357 0 5 11 15 17 18 18 16 15 14 14 12 13 10 7 3 1 1 358 350 344 345 342 337 337 336 334 334 333 330 325 322 318 316 316 314 309 306 309 311 311 310 308 307 305 304 303
311 311 311 313 321 329 334 333 329 326 323 320 316 310 309 310 314 315 315 317 312 308 311 316 322 331 334 336 341 347 353 355 356 355 353 352 353 356 1 6 13 19 21 20 21 18 17 18 18 17 18 16 12 8 5 7 4 354 347 347 343 336 333 333 334 334 332 327 324 321 320 319 318 315 311 311 312 313 313 311 309 307 305 304 303
307 307 308 312 322 334 337 332 327 323 322 320 315 310 308 309 311 311 312 313 309 305 308 314 321 330 332 335 340 346 351 354 354 353 352 352 352 355 1 8 15 22 24 22 22 21 19 22 21 20 21 21 18 13 9 8 5 357 349 349 348 339 334 335 335 333 328 325 324 321 320 320 319 318 316 314 314 315 313 310 308 306 305 304 303
301 304 309 316 326 337 337 330 324 321 320 318 315 311 309 308 308 308 309 309 306 303 305 311 321 329 331 333 338 344 349 352 353 352 351 351 351 355 1 9 16 22 25 24 23 23 22 24 23 21 21 22 21 17 12 10 8 360 353 353 358 353 346 344 341 336 330 325 323 320 320 320 319 319 317 316 317 316 312 308 305 304 304 304 303
296 302 310 321 330 336 333 326 321 320 320 319 316 313 310 309 308 307 306 305 301 299 302 309 320 327 328 331 336 341 346 350 351 351 351 350 350 355 1 9 15 20 23 23 23 24 23 23 24 23 23 24 23 19 16 14 12 5 358 358 4 6 1 355 347 340 335 331 326 323 321 321 320 319 318 317 317 315 311 307 304 303 302 302 301
293 300 309 321 329 331 326 319 316 318 320 319 317 314 312 311 309 305 302 300 298 296 299 308 318 322 324 328 333 338 344 348 350 350 350 348 349 354 0 7 12 15 18 19 20 23 23 23 25 25 25 25 24 21 20 19 15 7 0 358 3 7 6 1 354 346 340 336 333 330 327 325 323 321 320 319 317 314 309 306 305 304 303 303 302
296 300 307 317 323 322 317 314 313 314 316 317 316 314 313 312 309 304 300 298 296 294 297 306 314 317 320 325 330 335 341 346 349 350 349 347 347 352 358 3 5 7 11 13 15 19 21 23 26 27 24 23 22 22 22 20 15 6 359 356 358 1 3 1 356 351 345 340 336 333 330 328 326 325 323 322 320 316 312 310 308 306 305 304 304
305 307 308 310 312 311 310 311 309 308 310 312 312 312 312 312 310 304 300 298 294 292 296 303 310 313 318 324 327 330 336 342 346 348 348 346 346 350 353 355 357 360 3 5 9 14 16 21 23 23 22 21 20 22 22 16 12 5 356 353 353 354 356 357 354 351 347 342 337 332 329 326 325 324 323 321 320 318 316 313 310 307 306 305 305
311 312 307 302 302 302 303 305 302 301 305 306 308 310 312 312 309 303 299 296 293 291 295 301 306 310 316 321 322 323 330 338 343 346 346 346 345 346 346 347 348 352 354 357 6 10 10 14 17 19 20 20 20 23 21 15 10 5 357 351 349 351 352 353 353 350 347 343 339 334 330 327 325 324 323 322 320 319 316 314 312 310 308 307 306
312 310 304 297 291 290 295 298 296 296 299 302 305 309 312 311 306 302 297 294 291 291 294 298 303 306 311 316 315 316 324 333 339 342 344 344 343 341 341 339 338 342 345 349 3 8 4 5 10 16 20 21 25 28 25 18 12 9 3 354 351 352 353 354 354 352 350 346 343 339 335 331 329 327 325 324 323 321 319 317 315 314 313 312 310
309 308 307 301 289 286 293 295 294 296 297 299 303 309 312 309 305 301 296 292 289 290 293 295 299 301 305 309 307 309 316 326 333 338 341 342 341 337 335 332 328 329 334 343 356 6 7 7 10 16 23 27 31 33 31 25 19 14 9 2 357 355 355 356 357 357 355 353 350 346 342 338 334 330 327 325 323 322 321 319 318 316 315 313 313
308 310 314 311 299 293 295 297 298 299 298 297 300 305 308 308 306 301 295 290 287 288 291 292 294 295 299 302 301 301 307 316 325 333 336 338 339 335 330 324 318 317 322 332 343 2 16 20 18 20 26 31 35 37 35 30 26 21 14 9 3 358 356 355 357 358 358 357 355 353 350 346 342 338 333 330 327 323 321 320 319 318 315 314 313
309 317 322 316 307 300 297 300 304 303 298 293 293 297 303 308 307 301 295 289 286 287 289 290 290 292 294 295 295 294 299 307 315 326 331 334 334 330 325 316 310 309 309 311 318 347 33 43 36 31 30 33 35 36 34 30 27 21 15 9 3 358 353 350 349 350 352 353 351 350 349 347 345 342 339 336 331 327 325 324 321 318 317 316 315
307 326 329 324 318 308 301 303 307 306 299 291 286 290 299 306 305 301 296 290 288 288 289 289 289 289 289 288 289 290 293 298 305 318 326 328 328 323 318 306 299 299 295 290 288 313 39 51 48 43 33 30 27 24 22 20 16 10 4 359 354 349 344 342 340 340 342 343 342 342 342 342 341 339 338 335 332 329 329 327 322 319 318 315 315
292 311 314 316 319 314 307 304 306 306 301 295 288 287 296 303 303 301 298 293 290 289 289 289 288 287 285 285 286 287 289 292 298 310 320 323 322 318 309 296 290 287 282 278 274 284 21 36 36 34 23 18 9 0 356 353 351 346 340 337 335 332 331 330 329 330 331 333 333 334 335 335 334 334 332 329 328 328 327 326 323 323 322 318 315
280 297 304 305 307 308 306 305 306 304 304 305 295 286 289 297 299 300 299 295 291 289 288 287 286 284 283 284 284 287 288 288 294 303 312 316 316 311 302 292 284 278 273 269 267 274 304 325 334 343 349 349 340 332 329 327 324 321 320 320 319 319 319 318 318 319 321 323 325 326 327 327 326 326 325 323 323 322 322 323 322 323 323 321 318
279 294 304 305 303 303 303 305 306 304 309 311 295 283 285 291 293 296 295 292 289 287 285 283 283 282 282 283 283 286 287 287 289 295 302 307 310 306 297 287 278 273 270 268 268 277 292 303 312 316 319 319 315 314 314 313 312 311 311 312 312 312 312 312 312 312 314 316 318 319 319 319 319 319 319 318 317 317 316 318 317 317 318 318 319
284 296 305 306 305 303 303 305 304 303 311 307 289 284 284 286 287 290 290 288 287 285 283 281 281 280 279 279 279 280 283 284 284 287 293 296 300 300 291 280 271 267 266 269 275 289 297 298 301 304 305 306 307 308 308 307 307 307 307 308 309 309 309 310 310 311 311 312 313 314 313 313 313 313 313 312 312 312 312 311 310 310 311 312 315
287 299 305 308 308 306 306 305 300 297 301 299 291 288 285 282 283 285 285 285 284 282 281 280 279 278 277 276 275 277 278 279 278 281 284 285 291 294 286 273 265 261 262 269 279 289 294 296 299 301 302 304 305 305 304 303 303 304 305 305 306 307 307 308 309 309 308 309 310 310 310 310 310 310 310 310 310 309 308 307 305 305 307 310 314
282 293 302 310 311 310 309 305 298 291 290 291 290 289 286 282 281 281 282 282 281 280 279 278 276 276 276 275 275 276 275 274 275 276 273 273 280 283 280 273 263 259 265 276 285 289 293 297 302 301 299 298 299 300 301 303 303 303 302 302 303 303 304 304 305 305 307 309 310 310 310 311 311 311 311 311 311 309 308 307 307 307 307 310 311
273 282 291 300 304 305 305 304 300 294 290 288 288 286 284 282 282 278 277 277 278 278 277 275 274 274 274 274 274 274 273 272 271 268 263 263 268 275 279 272 261 259 268 276 283 287 291 294 295 294 293 294 297 301 303 303 302 301 301 302 302 302 302 303 304 307 309 311 312 312 312 313 313 312 312 311 310 309 309 309 309 308 308 308 307
270 277 283 289 293 294 296 299 300 297 293 289 286 283 278 279 281 278 273 273 275 276 276 275 274 273 273 273 274 275 275 273 269 266 260 257 261 270 276 268 256 257 265 271 276 281 285 288 291 292 295 297 300 302 302 302 301 301 303 303 303 303 304 306 308 310 312 312 313 313 313 313 313 312 312 311 311 310 309 308 308 308 307 306 305
274 280 284 286 288 289 290 293 296 298 297 290 283 279 275 276 280 276 270 269 272 274 274 274 274 273 273 273 276 278 279 276 271 267 261 257 260 267 271 264 255 255 260 267 273 278 283 287 290 293 296 298 300 301 302 303 303 304 305 305 304 306 308 310 311 312 313 313 313 314 314 314 314 314 314 313 312 311 310 308 306 305 305 305 304
280 282 284 285 286 287 287 288 291 297 297 288 279 275 273 275 277 273 268 269 271 273 273 273 273 273 274 275 276 276 277 275 272 269 265 261 262 265 266 261 257 257 258 264 271 278 283 286 290 294 298 300 301 302 304 305 305 306 306 306 306 308 310 311 311 312 313 313 314 315 315 315 315 314 314 313 312 311 309 307 305 303 303 303 303
281 282 283 284 284 283 283 284 286 292 293 284 276 273 273 275 275 272 269 270 272 272 272 272 274 274 273 273 272 271 272 273 273 271 268 265 265 264 260 258 260 263 262 266 274 280 285 288 293 298 300 300 301 302 304 304 305 307 307 308 309 310 311 312 313 313 314 314 314 314 314 314 314 313 312 311 310 309 308 306 304 303 302 302 302
281 282 282 282 281 278 278 279 279 284 285 279 272 272 273 275 275 273 272 272 272 273 272 273 273 273 270 268 267 268 270 272 273 271 269 269 266 257 252 255 258 265 270 274 279 284 288 292 296 299 300 300 302 304 306 307 308 309 310 311 312 312 313 313 314 314 314 314 314 313 312 312 312 311 311 310 310 309 309 307 305 304 303 302 302
283 281 280 279 278 276 274 274 273 274 276 273 268 269 274 275 275 276 275 274 273 272 271 270 268 265 264 264 265 265 268 272 272 270 270 271 265 252 248 251 254 263 272 276 281 287 291 295 298 301 303 304 306 308 309 309 310 312 313 313 313 312 313 313 313 313 312 312 311 310 310 309 309 309 309 309 309 309 308 307 306 304 304 303 303
284 279 276 275 274 273 272 271 268 266 269 269 267 270 274 274 275 279 279 276 272 267 265 264 262 259 258 260 262 263 266 267 267 268 268 269 265 253 246 250 255 264 273 279 286 292 296 298 301 304 307 308 310 310 311 310 310 312 313 314 313 311 311 312 311 311 310 308 308 307 307 307 306 306 306 307 307 307 306 305 304 303 303 302 302
282 278 275 273 272 271 271 270 267 264 266 267 267 271 274 273 276 280 281 276 269 261 257 257 258 257 255 256 258 261 261 260 261 262 263 264 260 250 246 252 259 267 277 285 292 296 299 301 305 307 308 309 310 310 310 311 310 311 312 312 311 310 310 309 309 308 307 306 305 305 305 305 304 304 305 305 304 303 303 302 302 301 301 300 300
279 278 275 272 270 270 270 269 268 266 265 265 267 270 272 272 275 279 279 273 265 258 255 254 254 254 255 256 256 257 256 255 256 259 262 260 254 249 252 258 264 273 282 290 295 298 301 304 306 307 308 309 310 311 311 311 310 310 311 310 309 308 307 306 306 306 305 304 304 303 303 303 303 304 304 304 303 301 300 300 300 299 299 299 298
276 272 269 268 267 268 270 271 271 268 265 264 265 266 270 273 275 278 276 269 263 257 253 251 250 252 255 256 255 254 253 252 254 259 260 256 253 255 261 264 269 280 288 293 296 299 301 303 305 306 308 310 311 311 311 310 309 309 308 308 307 306 305 305 305 304 304 303 302 302 302 303 303 303 303 303 302 301 301 300 299 298 297 297 296
265 260 260 262 266 268 270 271 270 267 263 262 261 263 270 274 276 278 276 270 264 258 253 251 250 251 252 252 253 252 252 252 254 256 258 258 260 264 266 269 279 287 291 294 296 299 302 303 305 308 309 310 311 310 309 308 307 307 307 306 306 305 305 305 304 303 303 303 302 302 302 302 302 303 303 303 303 302 302 301 300 298 296 294 294
250 251 255 260 264 266 267 266 264 262 259 258 259 264 269 272 274 277 275 271 265 259 255 252 250 250 248 247 246 245 246 248 251 255 260 266 268 268 271 278 284 287 290 293 297 300 302 305 308 310 310 309 309 308 307 307 306 307 307 306 305 305 304 304 303 303 303 303 302 302 302 302 302 303 303 303 303 303 303 302 301 299 297 294 292
246 249 254 258 260 261 260 259 258 257 256 258 262 266 268 269 269 268 268 267 263 257 250 247 246 242 235 235 238 238 237 239 245 252 258 261 263 267 273 278 281 285 291 295 299 302 304 308 309 308 308 307 306 306 306 306 306 306 306 305 304 304 304 303 303 303 303 302 301 301 301 302 302 303 303 303 304 304 303 303 302 301 299 297 294
248 251 253 254 254 255 256 256 256 256 258 261 264 265 264 265 264 260 261 264 259 248 239 238 234 219 213 228 240 238 235 235 241 246 250 255 261 266 271 276 281 288 294 298 301 303 306 308 307 306 305 304 304 305 305 305 304 304 303 303 303 303 303 303 303 303 303 303 302 302 302 303 303 304 304 304 304 303 303 302 302 302 301 300 298
251 252 251 249 248 250 255 258 258 257 258 260 261 260 260 262 261 258 260 259 248 232 226 227 216 205 215 242 246 241 239 238 241 245 251 257 262 267 273 280 287 292 296 299 301 304 305 305 304 304 304 304 304 304 304 303 302 302 302 302 303 303 303 303 303 303 303 303 304 304 305 305 306 305 305 305 305 304 303 303 303 303 302 301 300
252 250 246 243 242 247 255 259 257 255 255 256 255 254 256 259 258 255 254 245 230 218 218 217 210 212 231 246 242 239 236 237 243 249 255 260 266 273 280 286 292 294 296 298 301 303 304 303 303 303 303 304 304 303 303 302 302 302 302 303 303 303 304 304 304 304 304 304 305 306 306 307 307 307 307 306 306 305 305 305 305 304 304 303 302
251 248 241 237 239 248 256 258 256 254 254 254 251 251 253 256 253 247 241 233 223 217 217 214 214 223 238 238 234 234 232 239 251 257 264 270 275 281 286 290 291 292 294 297 301 302 302 301 301 302 302 303 303 303 303 304 305 305 305 305 305 305 305 305 305 305 305 305 306 306 307 307 306 306 306 306 306 306 306 306 306 305 305 304 303
252 246 237 234 241 251 257 258 255 254 254 252 250 250 250 248 244 239 232 227 221 218 219 219 223 231 235 232 231 233 238 249 259 266 273 277 281 285 287 287 287 289 294 298 299 300 299 299 300 301 301 302 304 306 308 309 310 309 309 308 307 307 307 307 307 307 307 306 306 306 305 304 304 305 305 305 305 306 306 305 305 305 304 304 303
251 244 235 233 242 253 257 256 253 251 250 249 249 248 243 237 234 231 228 227 226 225 226 226 229 231 232 234 237 241 248 256 263 270 275 277 280 280 280 282 286 292 296 297 298 298 299 299 300 301 303 306 309 311 312 313 312 312 311 309 309 308 308 307 307 307 306 305 304 302 301 300 301 302 304 304 305 305 305 305 305 305 304 304 303
249 241 232 232 242 252 254 251 249 247 245 244 243 240 234 231 229 228 229 232 233 232 231 231 231 232 235 241 246 250 254 259 265 270 272 273 273 274 277 282 288 293 295 296 297 298 299 301 302 305 308 310 312 312 313 313 312 312 311 310 309 308 308 307 307 306 305 303 302 300 298 298 299 302 304 305 305 306 306 305 305 305 304 303 302
246 236 229 231 240 249 252 249 246 243 239 236 236 234 233 233 232 232 233 234 234 233 233 234 235 238 242 247 250 253 257 262 267 268 268 268 270 273 279 285 289 291 293 296 299 301 303 305 307 308 310 311 311 311 312 313 313 312 311 310 309 308 308 307 307 306 305 304 303 303 302 303 304 305 306 306 306 306 305 304 304 303 302 301 300
Height
5889 5888 5887 5886 5885 5884 5884 5883 5882 5881 5880 5879 5879 5878 5877 5876 5876 5875 5874 5873 5872 5871 5871 5871 5870 5870 5870 5869 5868 5867 5866 5865 5864 5863 5862 5861 5860 5859 5858 5857 5856 5855 5854 5854 5854 5853 5853 5852 5851 5851 5850 5850 5849 5849 5849 5848 5848 5847 5847 5847 5846 5846 5846 5846 5845 5845 5845 5844 5844 5844 5844 5843 5843 5843 5843 5843 5842 5842 5841 5841 5840 5840 5840 5839 5839
5889 5888 5887 5886 5885 5884 5884 5883 5882 5881 5880 5879 5879 5878 5877 5876 5875 5875 5874 5872 5872 5871 5871 5871 5870 5870 5870 5869 5868 5867 5866 5865 5864 5863 5862 5861 5860 5859 5858 5857 5856 5855 5854 5854 5853 5853 5853 5852 5851 5851 5850 5850 5850 5849 5849 5848 5848 5847 5847 5847 5846 5846 5846 5845 5845 5845 5844 5844 5844 5843 5843 5843 5843 5843 5842 5842 5842 5841 5841 5840 5839 5839 5839 5838 5838
5888 5888 5887 5886 5885 5884 5884 5883 5882 5881 5880 5879 5878 5877 5877 5876 5875 5874 5873 5872 5871 5871 5871 5870 5870 5870 5870 5869 5868 5867 5866 5865 5864 5863 5862 5861 5860 5860 5858 5857 5856 5855 5855 5854 5854 5853 5853 5853 5852 5851 5851 5850 5850 5849 5849 5848 5848 5847 5847 5847 5846 5846 5845 5845 5845 5844 5844 5843 5843 5843 5842 5842 5842 5842 5842 5841 5841 5840 5840 5839 5839 5838 5838 5837 5837
5888 5887 5886 5885 5885 5884 5884 5883 5882 5881 5880 5879 5878 5877 5877 5876 5875 5874 5873 5872 5871 5871 5871 5870 5870 5870 5870 5869 5868 5867 5866 5865 5864 5863 5862 5861 5860 5860 5859 5858 5857 5856 5855 5855 5854 5854 5854 5853 5853 5852 5851 5851 5850 5850 5849 5849 5848 5848 5847 5847 5846 5846 5845 5845 5844 5844 5844 5843 5843 5842 5842 5842 5841 5841 5841 5840 5840 5839 5839 5838 5838 5837 5837 5836 5836
5887 5887 5886 5885 5884 5884 5884 5883 5882 5881 5879 5879 5878 5877 5877 5876 5875 5874 5873 5872 5871 5871 5871 5870 5870 5870 5870 5869 5869 5868 5867 5866 5864 5863 5862 5861 5861 5860 5859 5858 5857 5856 5856 5855 5855 5855 5854 5854 5853 5852 5852 5851 5851 5850 5850 5849 5849 5848 5848 5847 5846 5846 5845 5845 5844 5844 5843 5843 5843 5842 5842 5841 5841 5841 5840 5839 5839 5838 5838 5837 5837 5836 5836 5835 5835
5887 5886 5885 5884 5884 5884 5883 5882 5881 5880 5879 5878 5878 5877 5876 5876 5875 5874 5873 5872 5871 5871 5871 5870 5870 5870 5870 5869 5869 5868 5867 5866 5864 5863 5862 5861 5861 5860 5859 5858 5857 5857 5856 5856 5855 5855 5854 5854 5853 5853 5852 5852 5851 5851 5850 5850 5849 5849 5848 5847 5846 5846 5845 5845 5844 5844 5843 5843 5842 5842 5842 5841 5841 5840 5840 5839 5838 5838 5837 5837 5836 5835 5835 5834 5834
5886 5886 5885 5884 5884 5884 5883 5882 5880 5879 5879 5878 5877 5877 5876 5876 5875 5874 5873 5872 5871 5871 5871 5870 5870 5870 5870 5869 5869 5868 5867 5866 5864 5863 5862 5861 5860 5860 5859 5858 5857 5857 5856 5856 5855 5855 5854 5854 5853 5853 5852 5852 5851 5851 5850 5850 5849 5849 5848 5847 5847 5846 5845 5845 5844 5844 5843 5843 5842 5842 5841 5841 5840 5840 5839 5838 5838 5837 5836 5836 5835 5834 5834 5833 5833
5885 5885 5884 5884 5883 5883 5882 5881 5880 5879 5878 5878 5877 5876 5876 5875 5875 5874 5873 5872 5872 5871 5870 5870 5870 5870 5870 5869 5868 5868 5867 5865 5864 5863 5862 5861 5860 5860 5859 5858 5858 5857 5856 5856 5855 5855 5854 5854 5853 5853 5853 5852 5851 5851 5850 5850 5849 5849 5848 5847 5847 5846 5846 5845 5844 5844 5843 5843 5842 5842 5841 5840 5840 5839 5839 5838 5837 5837 5836 5835 5835 5834 5833 5833 5832
5884 5884 5884 5883 5883 5882 5881 5880 5879 5879 5878 5878 5877 5876 5875 5875 5875 5874 5873 5872 5871 5871 5870 5870 5870 5870 5870 5869 5868 5868 5867 5865 5864 5863 5862 5861 5860 5860 5859 5858 5857 5857 5856 5856 5855 5855 5854 5854 5854 5853 5853 5852 5851 5851 5850 5850 5849 5848 5848 5848 5847 5846 5846 5845 5845 5844 5844 5843 5842 5842 5841 5840 5839 5839 5838 5838 5837 5836 5835 5835 5834 5833 5833 5832 5831
5883 5883 5883 5883 5882 5881 5880 5879 5879 5879 5878 5878 5877 5876 5875 5875 5875 5874 5873 5872 5871 5870 5870 5870 5870 5870 5870 5869 5868 5868 5867 5866 5864 5863 5862 5861 5860 5859 5859 5858 5857 5857 5856 5856 5856 5855 5855 5854 5854 5853 5853 5852 5851 5851 5850 5850 5849 5848 5848 5848 5847 5846 5846 5845 5845 5844 5844 5843 5843 5842 5841 5840 5840 5839 5838 5837 5836 5835 5834 5834 5833 5833 5832 5831 5830
5883 5883 5883 5882 5881 5880 5879 5879 5879 5878 5878 5877 5876 5875 5874 5874 5874 5873 5872 5871 5871 5870 5870 5870 5870 5870 5870 5869 5869 5868 5867 5866 5865 5863 5862 5861 5860 5860 5859 5858 5857 5857 5857 5856 5856 5855 5855 5854 5854 5853 5853 5852 5851 5851 5850 5850 5849 5848 5848 5848 5847 5846 5845 5845 5844 5844 5843 5843 5842 5842 5841 5841 5840 5839 5838 5837 5836 5835 5834 5833 5832 5832 5831 5830 5829
5882 5882 5881 5881 5880 5879 5878 5878 5878 5877 5877 5876 5875 5874 5873 5873 5873 5872 5871 5870 5870 5870 5870 5870 5870 5871 5870 5870 5869 5868 5867 5866 5865 5864 5863 5862 5861 5860 5859 5858 5858 5857 5857 5857 5856 5856 5855 5854 5854 5853 5852 5852 5851 5851 5850 5850 5849 5848 5847 5847 5847 5846 5845 5845 5844 5844 5843 5843 5842 5841 5841 5840 5840 5839 5838 5837 5836 5835 5834 5833 5832 5831 5830 5829 5829
5881 5880 5880 5879 5879 5878 5877 5877 5877 5876 5876 5875 5874 5873 5873 5872 5871 5871 5870 5869 5869 5869 5869 5869 5870 5871 5870 5870 5869 5868 5867 5866 5865 5864 5863 5862 5861 5860 5859 5859 5858 5857 5857 5857 5856 5856 5855 5854 5854 5853 5853 5852 5851 5851 5850 5850 5849 5849 5848 5847 5847 5846 5846 5845 5844 5844 5843 5842 5842 5841 5840 5840 5839 5838 5837 5836 5836 5835 5834 5833 5831 5830 5829 5829 5828
5879 5879 5878 5878 5878 5877 5877 5877 5876 5876 5875 5874 5874 5873 5872 5871 5871 5870 5869 5868 5868 5868 5869 5869 5870 5870 5870 5869 5869 5868 5867 5866 5865 5864 5863 5862 5861 5860 5859 5859 5858 5858 5857 5857 5856 5856 5855 5855 5854 5853 5853 5852 5851 5851 5850 5850 5850 5849 5848 5847 5847 5847 5846 5845 5844 5844 5843 5842 5842 5841 5840 5839 5839 5838 5837 5836 5835 5835 5833 5832 5831 5830 5829 5828 5827
5878 5877 5877 5877 5877 5877 5876 5876 5875 5875 5874 5874 5873 5872 5872 5871 5870 5869 5868 5868 5867 5867 5868 5868 5869 5869 5869 5869 5868 5867 5867 5866 5865 5864 5863 5862 5861 5860 5860 5859 5859 5858 5858 5857 5857 5856 5856 5855 5854 5854 5853 5852 5852 5851 5850 5850 5850 5849 5848 5847 5847 5846 5846 5845 5844 5844 5843 5842 5841 5840 5840 5839 5838 5837 5836 5835 5835 5834 5833 5832 5831 5830 5829 5828 5827
5876 5876 5876 5876 5876 5875 5875 5874 5874 5873 5873 5873 5872 5872 5871 5870 5869 5868 5867 5867 5867 5867 5867 5868 5868 5868 5869 5868 5868 5867 5866 5866 5865 5864 5863 5862 5861 5860 5860 5859 5859 5858 5858 5857 5857 5856 5856 5855 5855 5854 5853 5852 5852 5851 5850 5850 5849 5849 5848 5847 5846 5846 5845 5845 5844 5843 5843 5842 5841 5840 5839 5838 5838 5837 5836 5835 5834 5833 5832 5831 5830 5829 5828 5827 5826
5876 5876 5876 5875 5875 5874 5873 5873 5872 5872 5872 5872 5871 5871 5870 5869 5869 5868 5867 5867 5866 5866 5866 5867 5867 5868 5868 5868 5867 5867 5866 5865 5864 5864 5863 5862 5861 5860 5860 5859 5858 5858 5858 5857 5857 5856 5856 5855 5855 5854 5853 5853 5852 5851 5850 5850 5849 5848 5848 5847 5846 5845 5844 5844 5843 5843 5842 5842 5841 5840 5839 5838 5837 5836 5835 5834 5833 5832 5831 5830 5829 5828 5828 5827 5826
5875 5875 5875 5874 5873 5873 5872 5871 5870 5870 5870 5870 5870 5869 5869 5869 5868 5867 5866 5866 5866 5866 5866 5866 5866 5867 5867 5867 5867 5866 5865 5865 5864 5863 5862 5861 5861 5860 5859 5859 5858 5858 5857 5857 5856 5856 5856 5855 5855 5854 5853 5853 5852 5851 5850 5849 5849 5848 5847 5846 5846 5845 5844 5843 5843 5842 5842 5841 5840 5839 5839 5838 5837 5836 5835 5834 5833 5831 5830 5829 5828 5827 5827 5826 5825
5874 5874 5873 5873 5872 5871 5870 5869 5868 5868 5868 5869 5869 5868 5868 5867 5867 5866 5866 5866 5865 5865 5865 5865 5866 5866 5866 5866 5866 5865 5865 5864 5863 5862 5861 5861 5860 5859 5859 5858 5858 5857 5857 5857 5856 5856 5856 5855 5855 5854 5853 5852 5852 5851 5850 5849 5848 5848 5847 5846 5845 5845 5844 5843 5843 5842 5841 5841 5840 5839 5838 5837 5836 5835 5834 5833 5832 5830 5829 5828 5827 5826 5826 5825 5823
5873 5872 5871 5870 5869 5869 5868 5867 5866 5866 5867 5867 5868 5867 5867 5866 5865 5865 5865 5864 5864 5864 5864 5865 5865 5865 5865 5865 5865 5865 5864 5863 5862 5862 5861 5860 5859 5859 5858 5858 5857 5857 5857 5856 5856 5855 5855 5855 5854 5854 5853 5852 5852 5851 5850 5849 5848 5848 5847 5846 5845 5845 5844 5843 5843 5842 5841 5840 5839 5838 5837 5836 5835 5834 5833 5832 5831 5829 5828 5827 5826 5825 5824 5823 5822
5871 5870 5868 5867 5867 5867 5867 5865 5865 5865 5865 5866 5866 5866 5865 5865 5864 5864 5864 5863 5863 5863 5864 5864 5864 5864 5864 5864 5864 5863 5863 5862 5862 5861 5860 5859 5859 5858 5857 5857 5857 5856 5856 5856 5855 5855 5854 5854 5854 5853 5853 5852 5851 5851 5850 5849 5848 5848 5847 5846 5845 5845 5844 5843 5842 5842 5841 5840 5839 5838 5837 5836 5835 5833 5832 5831 5830 5828 5827 5826 5825 5824 5823 5822 5821
5869 5868 5866 5866 5865 5865 5864 5864 5863 5863 5863 5864 5864 5864 5864 5864 5863 5863 5862 5862 5862 5862 5862 5863 5863 5863 5862 5862 5862 5862 5862 5861 5861 5860 5859 5858 5858 5857 5857 5856 5856 5856 5856 5855 5855 5854 5854 5853 5853 5853 5852 5851 5851 5850 5850 5849 5848 5848 5847 5846 5845 5844 5843 5843 5842 5841 5840 5839 5838 5837 5836 5835 5834 5833 5831 5830 5829 5827 5826 5825 5824 5823 5822 5821 5820
5868 5866 5865 5864 5864 5863 5863 5862 5861 5861 5861 5861 5861 5862 5863 5863 5862 5862 5861 5861 5860 5861 5861 5861 5862 5862 5861 5861 5861 5861 5861 5860 5860 5859 5858 5857 5857 5856 5856 5855 5855 5855 5855 5854 5854 5854 5853 5852 5852 5851 5851 5851 5850 5850 5849 5849 5848 5848 5847 5846 5845 5844 5843 5842 5841 5840 5839 5838 5837 5836 5835 5834 5833 5832 5830 5829 5827 5826 5825 5824 5823 5822 5821 5820 5818
5866 5864 5864 5863 5862 5862 5861 5860 5860 5859 5859 5859 5859 5860 5861 5861 5861 5861 5860 5859 5859 5859 5859 5860 5860 5860 5860 5859 5859 5860 5860 5859 5859 5858 5857 5857 5856 5855 5855 5854 5854 5854 5854 5853 5853 5853 5852 5852 5851 5851 5850 5850 5849 5849 5849 5848 5848 5847 5846 5845 5845 5844 5843 5842 5841 5839 5838 5837 5836 5835 5834 5833 5832 5830 5829 5828 5826 5825 5824 5823 5821 5820 5819 5818 5817
5864 5862 5861 5861 5861 5860 5859 5859 5858 5857 5857 5856 5857 5858 5859 5859 5859 5859 5859 5858 5858 5857 5858 5858 5858 5859 5858 5858 5858 5858 5859 5858 5858 5857 5856 5856 5855 5854 5854 5853 5853 5853 5853 5852 5852 5852 5851 5851 5851 5850 5849 5849 5848 5848 5848 5847 5847 5846 5845 5845 5844 5843 5842 5841 5840 5839 5837 5836 5835 5834 5833 5832 5831 5829 5828 5826 5825 5824 5823 5821 5819 5818 5817 5816 5815
5862 5860 5860 5859 5859 5859 5858 5857 5857 5856 5855 5855 5855 5856 5857 5857 5857 5857 5857 5857 5856 5856 5856 5856 5856 5857 5857 5857 5857 5857 5857 5857 5856 5856 5856 5855 5854 5854 5853 5853 5852 5852 5852 5852 5851 5851 5851 5850 5850 5850 5849 5848 5848 5847 5846 5846 5845 5845 5844 5844 5843 5842 5841 5840 5839 5838 5836 5835 5834 5833 5832 5831 5830 5828 5826 5825 5824 5822 5821 5820 5818 5816 5815 5814 5812
5859 5858 5858 5858 5858 5857 5857 5856 5856 5855 5854 5854 5854 5855 5855 5855 5855 5855 5855 5855 5854 5854 5854 5854 5854 5855 5855 5855 5855 5855 5855 5855 5855 5855 5854 5854 5853 5853 5852 5852 5852 5851 5851 5851 5850 5850 5850 5850 5849 5849 5848 5847 5847 5846 5845 5845 5844 5844 5843 5843 5842 5841 5840 5839 5838 5837 5835 5834 5833 5832 5831 5830 5828 5827 5825 5824 5822 5821 5819 5817 5816 5814 5813 5812 5811
5857 5857 5857 5857 5856 5856 5856 5855 5855 5854 5853 5853 5853 5853 5853 5853 5853 5853 5853 5853 5853 5853 5853 5853 5853 5853 5853 5853 5853 5853 5853 5853 5853 5853 5853 5852 5852 5851 5851 5851 5851 5851 5850 5850 5849 5849 5849 5849 5848 5848 5847 5847 5846 5845 5844 5844 5843 5843 5842 5842 5841 5840 5839 5838 5837 5835 5834 5833 5832 5830 5829 5828 5826 5825 5823 5822 5820 5818 5817 5815 5814 5812 5811 5810 5809
5855 5855 5855 5855 5855 5855 5854 5854 5853 5853 5852 5852 5851 5851 5851 5851 5852 5852 5851 5851 5851 5851 5851 5851 5851 5851 5851 5852 5851 5851 5851 5851 5851 5852 5852 5851 5850 5850 5850 5850 5850 5850 5850 5849 5849 5848 5848 5848 5847 5847 5846 5845 5845 5844 5843 5842 5842 5841 5841 5840 5839 5838 5837 5836 5835 5833 5832 5831 5830 5828 5827 5825 5824 5823 5821 5820 5819 5817 5815 5813 5812 5811 5810 5809 5808
5853 5853 5853 5853 5853 5853 5853 5853 5852 5851 5850 5850 5849 5849 5849 5850 5850 5850 5850 5849 5849 5849 5849 5849 5849 5849 5850 5850 5850 5849 5849 5850 5850 5850 5850 5850 5849 5848 5848 5849 5849 5849 5849 5848 5848 5847 5847 5847 5846 5845 5845 5844 5843 5842 5842 5841 5840 5840 5839 5839 5838 5837 5835 5834 5833 5832 5830 5829 5828 5826 5825 5823 5822 5821 5820 5819 5817 5815 5814 5812 5810 5809 5807 5807 5806
5851 5851 5851 5851 5851 5851 5851 5850 5850 5849 5848 5848 5847 5847 5847 5847 5848 5848 5848 5847 5847 5847 5847 5847 5847 5847 5848 5848 5848 5848 5848 5848 5848 5848 5848 5848 5848 5847 5847 5847 5847 5847 5847 5847 5847 5846 5846 5845 5845 5844 5843 5842 5842 5841 5841 5840 5839 5838 5838 5837 5836 5835 5833 5832 5831 5830 5829 5827 5826 5825 5823 5822 5821 5819 5818 5817 5815 5814 5812 5810 5808 5806 5805 5804 5803
5849 5849 5849 5849 5849 5849 5849 5848 5847 5847 5846 5845 5845 5844 5845 5845 5846 5846 5845 5845 5845 5845 5845 5845 5845 5845 5845 5846 5846 5846 5846 5846 5846 5846 5846 5846 5846 5846 5845 5845 5845 5845 5845 5845 5845 5845 5844 5844 5844 5843 5842 5841 5841 5840 5839 5838 5838 5837 5836 5835 5834 5833 5832 5831 5829 5828 5827 5826 5824 5823 5822 5820 5819 5817 5816 5814 5813 5811 5810 5809 5807 5805 5803 5802 5801
5847 5847 5847 5846 5847 5847 5846 5846 5845 5844 5844 5843 5842 5842 5842 5843 5843 5843 5843 5843 5843 5842 5843 5843 5843 5843 5843 5843 5844 5844 5843 5843 5843 5843 5843 5843 5844 5844 5844 5843 5843 5843 5843 5843 5843 5843 5843 5843 5842 5842 5841 5840 5839 5838 5837 5836 5836 5835 5835 5834 5832 5831 5830 5829 5828 5827 5825 5824 5823 5821 5820 5818 5817 5815 5814 5812 5811 5809 5808 5807 5805 5803 5801 5799 5798
5845 5845 5844 5844 5845 5844 5844 5843 5843 5842 5841 5840 5840 5840 5840 5840 5841 5841 5841 5841 5840 5840 5840 5841 5841 5841 5841 5841 5842 5841 5841 5841 5841 5841 5841 5841 5841 5841 5842 5842 5841 5841 5841 5841 5842 5842 5841 5841 5840 5840 5839 5838 5838 5837 5836 5835 5834 5834 5833 5832 5830 5829 5828 5827 5826 5825 5823 5822 5820 5819 5818 5816 5815 5813 5812 5810 5808 5807 5805 5804 5802 5800 5798 5796 5795
5843 5843 5842 5842 5842 5841 5841 5841 5840 5840 5840 5839 5838 5838 5838 5838 5838 5839 5839 5838 5838 5838 5838 5838 5839 5839 5839 5839 5839 5839 5839 5839 5840 5840 5839 5839 5839 5839 5839 5840 5840 5840 5840 5840 5840 5840 5840 5839 5839 5838 5838 5837 5836 5835 5834 5833 5832 5832 5831 5829 5828 5827 5826 5825 5824 5823 5821 5819 5818 5817 5816 5814 5813 5811 5809 5807 5805 5804 5802 5801 5800 5798 5796 5794 5792
5840 5840 5840 5839 5838 5838 5838 5838 5838 5838 5838 5837 5837 5836 5836 5836 5836 5836 5836 5836 5835 5835 5836 5836 5836 5836 5837 5837 5838 5838 5838 5838 5838 5838 5838 5838 5837 5837 5837 5838 5838 5838 5838 5838 5838 5838 5838 5838 5837 5837 5836 5835 5834 5833 5832 5831 5830 5830 5829 5828 5826 5825 5824 5823 5822 5820 5819 5817 5816 5814 5813 5812 5810 5809 5807 5805 5803 5801 5799 5798 5797 5795 5793 5791 5789
5837 5837 5836 5836 5835 5835 5835 5835 5836 5835 5835 5835 5835 5835 5835 5835 5834 5834 5834 5834 5833 5833 5833 5834 5834 5834 5835 5835 5836 5836 5836 5836 5837 5837 5837 5836 5836 5835 5835 5836 5836 5836 5836 5837 5837 5837 5837 5836 5836 5835 5834 5833 5832 5831 5830 5829 5828 5828 5827 5826 5824 5823 5822 5821 5820 5818 5817 5815 5813 5812 5811 5809 5808 5806 5804 5802 5800 5798 5797 5795 5794 5792 5790 5788 5786
5832 5833 5832 5832 5832 5832 5832 5833 5833 5833 5833 5833 5833 5832 5833 5833 5832 5832 5831 5831 5831 5831 5831 5832 5832 5833 5833 5833 5834 5834 5834 5835 5835 5835 5835 5835 5834 5834 5834 5834 5834 5834 5835 5835 5835 5835 5835 5835 5834 5834 5833 5832 5831 5830 5828 5827 5826 5825 5825 5824 5823 5821 5820 5818 5817 5816 5814 5812 5811 5809 5808 5806 5804 5803 5801 5799 5797 5795 5794 5792 5790 5789 5787 5785 5784
5828 5829 5829 5829 5829 5829 5829 5830 5830 5830 5830 5830 5830 5830 5830 5831 5831 5830 5829 5829 5829 5829 5829 5830 5831 5831 5831 5831 5831 5832 5832 5833 5833 5833 5833 5833 5833 5832 5833 5833 5833 5833 5833 5834 5834 5834 5834 5834 5833 5832 5832 5830 5829 5828 5826 5825 5824 5823 5823 5822 5821 5819 5818 5816 5814 5812 5811 5809 5808 5806 5804 5803 5801 5799 5797 5795 5794 5792 5791 5789 5787 5786 5784 5782 5780
5825 5826 5826 5826 5826 5826 5826 5827 5827 5827 5828 5828 5828 5828 5828 5829 5829 5828 5827 5827 5826 5827 5827 5828 5829 5829 5829 5829 5829 5829 5830 5831 5831 5831 5831 5831 5831 5831 5832 5832 5832 5832 5832 5832 5833 5833 5833 5833 5832 5831 5830 5829 5828 5826 5825 5823 5821 5821 5820 5819 5818 5817 5815 5813 5811 5810 5808 5806 5804 5803 5801 5799 5797 5795 5793 5791 5790 5788 5787 5786 5784 5783 5781 5779 5777
5823 5823 5823 5823 5823 5823 5824 5824 5825 5825 5825 5826 5826 5826 5827 5827 5827 5827 5826 5825 5824 5825 5825 5826 5827 5827 5827 5826 5827 5827 5828 5828 5829 5830 5830 5830 5830 5830 5830 5830 5830 5831 5831 5831 5831 5831 5832 5831 5831 5830 5829 5827 5826 5824 5823 5821 5819 5818 5817 5816 5815 5814 5812 5810 5808 5806 5805 5802 5801 5799 5797 5796 5794 5792 5789 5787 5786 5784 5783 5782 5780 5779 5778 5776 5774
5820 5821 5821 5821 5821 5821 5821 5822 5822 5823 5823 5823 5823 5824 5824 5825 5825 5824 5824 5823 5823 5823 5824 5825 5825 5825 5825 5825 5825 5825 5826 5827 5827 5828 5828 5828 5829 5829 5829 5829 5829 5829 5829 5830 5830 5830 5830 5829 5828 5828 5827 5826 5825 5823 5821 5820 5817 5815 5814 5813 5811 5810 5809 5807 5805 5803 5801 5799 5796 5795 5793 5791 5790 5788 5785 5784 5782 5780 5778 5777 5776 5775 5774 5773 5771
5818 5819 5819 5819 5819 5819 5819 5819 5820 5820 5820 5821 5821 5822 5822 5822 5822 5822 5821 5821 5821 5822 5822 5823 5823 5823 5824 5824 5824 5824 5824 5825 5826 5826 5827 5827 5827 5828 5828 5828 5828 5828 5828 5828 5828 5828 5827 5827 5826 5826 5825 5824 5823 5821 5819 5817 5815 5813 5811 5809 5808 5806 5805 5804 5802 5800 5797 5795 5793 5791 5789 5788 5786 5784 5782 5780 5778 5776 5774 5773 5771 5770 5769 5768 5767
5816 5816 5817 5816 5817 5817 5817 5817 5818 5818 5818 5819 5820 5820 5820 5820 5820 5820 5820 5820 5820 5820 5821 5821 5822 5822 5823 5823 5823 5823 5823 5824 5825 5825 5825 5826 5826 5826 5826 5826 5826 5826 5827 5827 5826 5826 5825 5825 5824 5824 5823 5822 5821 5819 5817 5815 5813 5811 5809 5807 5805 5803 5801 5800 5798 5795 5793 5790 5788 5787 5785 5784 5782 5780 5778 5776 5774 5773 5771 5769 5767 5766 5764 5763 5762
5814 5814 5814 5814 5814 5814 5815 5815 5815 5816 5817 5817 5818 5818 5818 5818 5818 5818 5818 5819 5819 5819 5819 5820 5820 5821 5822 5822 5822 5822 5822 5823 5823 5824 5824 5825 5825 5825 5825 5825 5825 5825 5825 5825 5825 5824 5823 5823 5822 5821 5821 5819 5818 5816 5814 5813 5811 5809 5807 5804 5802 5800 5798 5796 5794 5792 5789 5786 5784 5782 5781 5779 5778 5776 5774 5772 5771 5769 5767 5765 5763 5762 5760 5758 5757
5811 5810 5811 5811 5812 5812 5813 5813 5813 5814 5815 5815 5815 5816 5816 5816 5816 5817 5817 5818 5818 5818 5818 5819 5820 5820 5821 5821 5821 5821 5821 5822 5822 5822 5823 5823 5823 5823 5823 5823 5823 5823 5823 5823 5823 5822 5821 5821 5820 5819 5818 5816 5815 5813 5812 5810 5808 5806 5804 5802 5799 5797 5794 5792 5790 5788 5786 5783 5781 5778 5776 5774 5773 5771 5770 5768 5766 5764 5763 5761 5759 5757 5755 5753 5752
5808 5808 5808 5809 5809 5810 5810 5810 5811 5811 5812 5813 5813 5813 5814 5814 5814 5815 5816 5817 5817 5817 5817 5818 5819 5819 5820 5820 5820 5820 5820 5820 5820 5821 5821 5822 5822 5822 5822 5822 5822 5822 5822 5821 5821 5820 5819 5818 5817 5816 5815 5814 5812 5810 5809 5807 5805 5803 5800 5798 5795 5793 5790 5788 5786 5784 5782 5780 5777 5775 5773 5771 5769 5767 5766 5764 5762 5760 5758 5756 5754 5752 5750 5748 5746
5805 5805 5806 5806 5807 5807 5808 5808 5809 5810 5810 5811 5811 5811 5812 5813 5813 5814 5815 5816 5816 5816 5816 5817 5817 5818 5818 5819 5819 5819 5819 5819 5819 5820 5820 5821 5821 5821 5821 5821 5821 5820 5820 5819 5819 5818 5817 5816 5815 5814 5812 5811 5809 5807 5805 5803 5801 5799 5796 5794 5791 5789 5786 5784 5782 5780 5778 5776 5774 5771 5769 5767 5765 5764 5762 5760 5758 5756 5754 5752 5750 5748 5745 5743 5741
5803 5803 5804 5804 5805 5805 5806 5807 5807 5808 5808 5809 5809 5810 5811 5811 5812 5813 5814 5814 5815 5815 5815 5816 5816 5816 5817 5817 5818 5818 5818 5818 5819 5819 5819 5819 5819 5819 5819 5819 5819 5818 5818 5817 5816 5815 5815 5813 5812 5811 5809 5807 5806 5804 5801 5799 5797 5795 5792 5789 5787 5785 5783 5781 5779 5777 5775 5773 5771 5769 5767 5764 5762 5760 5758 5756 5753 5751 5749 5747 5745 5742 5740 5738 5736
5801 5802 5802 5802 5803 5804 5805 5805 5805 5806 5806 5807 5807 5808 5809 5810 5811 5812 5813 5813 5813 5813 5814 5814 5814 5815 5815 5816 5817 5817 5817 5817 5817 5818 5818 5818 5818 5818 5818 5817 5817 5816 5816 5815 5814 5813 5812 5811 5809 5808 5806 5804 5802 5800 5798 5796 5794 5791 5788 5785 5783 5781 5779 5777 5775 5773 5771 5770 5768 5766 5764 5761 5759 5756 5754 5752 5749 5746 5744 5742 5740 5737 5735 5733 5730
5799 5800 5800 5801 5801 5802 5803 5803 5803 5804 5804 5805 5806 5807 5808 5809 5810 5810 5811 5811 5811 5812 5812 5812 5813 5813 5814 5815 5815 5815 5816 5816 5816 5816 5816 5816 5816 5816 5816 5815 5815 5814 5813 5813 5812 5811 5809 5808 5806 5804 5803 5801 5799 5797 5795 5793 5790 5787 5784 5781 5779 5777 5775 5773 5771 5769 5767 5765 5763 5761 5758 5756 5753 5750 5748 5746 5743 5741 5738 5736 5734 5732 5730 5727 5725